Weather History for EBFS - December, 2012

Change the Weather History Date:

Friday, December 7, 2012

  Actual Average Record
Temperature  
Mean Temperature 32 °F -  
Max Temperature 33 °F 38 °F 53 °F (2000)
Min Temperature 30 °F 33 °F 23 °F (2010)
Degree Days  
Heating Degree Days 34    
Moisture  
Dew Point 30 °F    
Average Humidity 93    
Maximum Humidity 100    
Minimum Humidity 79    
Precipitation  
Precipitation 0.08 in - - ()
Sea Level Pressure  
Sea Level Pressure 29.56 in    
Wind  
Wind Speed 14 mph ()    
Max Wind Speed 24 mph    
Max Gust Speed 30 mph    
Visibility 4.1 miles    
Events Snow    
Averages and records for this station are not official NWS values.
T = Trace of Precipitation, MM = Missing Value Source: Averaged Metar Reports

Daily Weather History Graph

Daily Weather History Graph

Search for Another Location

Airport or City:

Trip Planner

Search our weather history database for the weather conditions in past years. The results will help you decide how hot, cold, wet, or windy it might be!

Date:

Astronomy

Dec. 07, 2012 Rise Set
Actual Time 8:26 AM CET 4:38 PM CET
Civil Twilight 7:48 AM CET 5:17 PM CET
Nautical Twilight 7:07 AM CET 5:58 PM CET
Astronomical Twilight 6:27 AM CET 6:37 PM CET
Moon 12:53 AM CET (12/7) 1:00 PM CET (12/7)
Length of Visible Light 9h 28m
Length of Day
8h 11m
Last Quarter, 41% of the Moon is Illuminated
Dec 7
Last Quarter
Dec 13
New
Dec 20
First Quarter
Dec 28
Full
Jan 5
Last Quarter

Hourly Weather History & Observations

Time (CET) Temp. Windchill Dew Point Humidity Pressure Visibility Wind Dir Wind Speed Gust Speed Precip Events Conditions
12:25 AM 32.0 °F 22.1 °F 26.6 °F 80% 29.83 in 6.2 mi SSW 13.8 mph - N/A   Mostly Cloudy
12:55 AM 32.0 °F 22.5 °F 26.6 °F 80% 29.80 in 6.2 mi South 12.7 mph - N/A   Mostly Cloudy
1:00 AM 31 °F - 27 °F 80% 29.87 in 12 mi South 13.4 mph - -   Overcast
1:25 AM 32.0 °F 22.1 °F 26.6 °F 80% 29.80 in 6.2 mi South 13.8 mph - N/A   Mostly Cloudy
1:55 AM 32.0 °F 20.8 °F 28.4 °F 87% 29.74 in 6.2 mi South 17.3 mph - N/A Snow Light Snow
1:56 AM 32.0 °F 20.8 °F 28.4 °F 87% 29.74 in 6.2 mi South 17.3 mph - N/A Snow Light Snow
2:25 AM 32.0 °F 20.8 °F 28.4 °F 87% 29.71 in 6.2 mi South 17.3 mph - N/A Snow Light Snow
2:55 AM 32.0 °F 20.5 °F 28.4 °F 87% 29.71 in 6.2 mi South 18.4 mph - N/A Snow Light Snow
3:25 AM 32.0 °F 20.5 °F 28.4 °F 87% 29.68 in 6.2 mi South 18.4 mph - N/A Snow Light Snow
3:55 AM 32.0 °F 19.8 °F 28.4 °F 87% 29.65 in 6.2 mi South 20.7 mph - N/A Snow Light Snow
4:00 AM 32 °F - 28 °F 79% 29.70 in 7 mi South 20.1 mph - - Snow Light Snow
4:25 AM 32.0 °F 19.8 °F 28.4 °F 87% 29.62 in 6.2 mi South 20.7 mph - N/A Snow Light Snow
4:55 AM 30.2 °F 17.8 °F 28.4 °F 93% 29.59 in 3.7 mi South 19.6 mph - N/A Snow Light Snow
5:13 AM 30.2 °F 16.8 °F 28.4 °F 93% 29.56 in - South 23.0 mph - N/A Snow Light Snow
5:25 AM 30.2 °F 17.4 °F 28.4 °F 93% 29.56 in 1.4 mi South 20.7 mph - N/A Snow Snow
5:55 AM 30.2 °F 16.5 °F 28.4 °F 93% 29.59 in 1.1 mi South 24.2 mph - N/A Snow Snow
6:24 AM 30.2 °F 17.1 °F 28.4 °F 93% 29.53 in 0.9 mi SSW 21.9 mph - N/A Snow Snow
6:25 AM 30.2 °F 17.1 °F 28.4 °F 93% 29.53 in 0.9 mi SSW 21.9 mph - N/A Snow Snow
6:32 AM 30.2 °F 17.8 °F 28.4 °F 93% 29.53 in 0.4 mi SSW 19.6 mph - N/A Snow Snow
6:45 AM 30.2 °F 17.8 °F 28.4 °F 93% 29.53 in 0.6 mi SSW 19.6 mph - N/A Snow Snow
6:55 AM 30.2 °F 17.8 °F 28.4 °F 93% 29.50 in 0.7 mi SSW 19.6 mph - N/A Snow Snow
7:25 AM 30.2 °F 17.4 °F 28.4 °F 93% 29.50 in 0.5 mi South 20.7 mph - N/A Snow Snow
7:50 AM 30.2 °F 17.1 °F 28.4 °F 93% 29.47 in 1.1 mi South 21.9 mph - N/A Snow Snow
7:55 AM 30.2 °F 17.4 °F 28.4 °F 93% 29.47 in 1.6 mi South 20.7 mph - N/A Snow Light Snow
8:25 AM 30.2 °F 17.8 °F 28.4 °F 93% 29.47 in 1.2 mi SSW 19.6 mph - N/A Snow Light Snow
8:55 AM 30.2 °F 17.4 °F 26.6 °F 86% 29.47 in 1.7 mi SSW 20.7 mph - N/A Snow Light Snow
9:06 AM 30.2 °F 18.5 °F 26.6 °F 86% 29.47 in 3.7 mi SSW 17.3 mph - N/A Snow Light Snow
9:25 AM 30.2 °F 18.5 °F 26.6 °F 86% 29.47 in 6.2 mi SSW 17.3 mph - N/A Snow Light Snow
9:41 AM 30.2 °F 18.5 °F 26.6 °F 86% 29.47 in 3.7 mi SSW 17.3 mph - N/A Snow Light Snow
9:55 AM 30.2 °F 18.1 °F 26.6 °F 86% 29.47 in 4.3 mi SSW 18.4 mph - N/A Snow Light Snow
10:00 AM 31 °F - 27 °F 80% 29.53 in 4 mi SSW 17.9 mph - - Snow Light Snow
10:14 AM 30.2 °F 18.1 °F 28.4 °F 93% 29.47 in - SSW 18.4 mph 29.9 mph N/A Snow Light Snow
10:25 AM 30.2 °F 19.3 °F 28.4 °F 93% 29.44 in 2.8 mi SSW 15.0 mph - N/A Snow Light Snow
10:55 AM 30.2 °F 19.3 °F 28.4 °F 93% 29.44 in 2.8 mi SSW 15.0 mph - N/A Snow Light Snow
11:25 AM 30.2 °F 19.8 °F 30.2 °F 100% 29.44 in 4.3 mi SSW 13.8 mph - N/A Snow Light Snow
11:41 AM 32.0 °F 22.1 °F 28.4 °F 87% 29.47 in 5.6 mi SSW 13.8 mph - N/A   Mostly Cloudy
11:55 AM 32.0 °F 22.5 °F 30.2 °F 93% 29.47 in 5.6 mi SSW 12.7 mph - N/A   Mostly Cloudy
12:25 PM 32.0 °F 23.6 °F 30.2 °F 93% 29.44 in 6.2 mi SSW 10.4 mph - N/A   Mostly Cloudy
12:55 PM 32.0 °F 23.0 °F 30.2 °F 93% 29.47 in 6.2 mi SW 11.5 mph - N/A   Mostly Cloudy
1:00 PM 32 °F - 31 °F 94% 29.52 in 9 mi SW 11.2 mph - -   Partly Cloudy
1:25 PM 32.0 °F 23.0 °F 32.0 °F 100% 29.44 in 6.2 mi SW 11.5 mph - N/A   Overcast
1:41 PM 32.0 °F 24.2 °F 32.0 °F 100% 29.47 in 2.5 mi SW 9.2 mph - N/A   Overcast
1:55 PM 32.0 °F 22.1 °F 32.0 °F 100% 29.44 in 1.5 mi SSW 13.8 mph - N/A   Overcast
2:25 PM 32.0 °F 23.0 °F 32.0 °F 100% 29.44 in 1.3 mi SSW 11.5 mph - N/A   Overcast
2:48 PM 32.0 °F 23.0 °F 32.0 °F 100% 29.44 in 1.1 mi SSW 11.5 mph - N/A   Overcast
2:55 PM 32.0 °F 23.0 °F 32.0 °F 100% 29.44 in 1.1 mi SSW 11.5 mph - N/A   Overcast
3:25 PM 32.0 °F 23.6 °F 32.0 °F 100% 29.44 in 1.0 mi SSW 10.4 mph - N/A   Overcast
3:55 PM 32.0 °F 23.6 °F 32.0 °F 100% 29.47 in 1.2 mi SSW 10.4 mph - N/A   Overcast
4:00 PM 33 °F - 32 °F 96% 29.52 in 1 mi SSW 8.9 mph - -   Mist
4:25 PM 32.0 °F 24.2 °F 32.0 °F 100% 29.47 in - South 9.2 mph - N/A   Overcast
4:46 PM 32.0 °F 25.6 °F 32.0 °F 100% 29.47 in - South 6.9 mph - N/A   Overcast
4:55 PM 32.0 °F 27.5 °F 32.0 °F 100% 29.47 in - SSE 4.6 mph - N/A   Overcast
5:25 PM 32.0 °F 26.4 °F 32.0 °F 100% 29.50 in 1.8 mi SSE 5.8 mph - N/A   Overcast
5:31 PM 32.0 °F 26.4 °F 32.0 °F 100% 29.50 in 1.5 mi SSE 5.8 mph - N/A   Overcast
5:55 PM 32.0 °F 25.6 °F 32.0 °F 100% 29.50 in 0.9 mi SSE 6.9 mph - N/A   Overcast
6:25 PM 32.0 °F 26.4 °F 32.0 °F 100% 29.53 in 2.2 mi ESE 5.8 mph - N/A   Overcast
6:55 PM 32.0 °F 25.6 °F 32.0 °F 100% 29.53 in 3.1 mi ESE 6.9 mph - N/A   Overcast
7:00 PM 33 °F - 32 °F 94% 29.60 in 3 mi ESE 6.7 mph - -   Mist
7:25 PM 32.0 °F 25.6 °F 32.0 °F 100% 29.56 in - East 6.9 mph - N/A   Mostly Cloudy
7:55 PM 32.0 °F 25.6 °F 32.0 °F 100% 29.59 in 3.1 mi East 6.9 mph - N/A   Mostly Cloudy
8:16 PM 32.0 °F 26.4 °F 32.0 °F 100% 29.59 in 4.3 mi East 5.8 mph - N/A   Overcast
8:25 PM 32.0 °F 26.4 °F 32.0 °F 100% 29.62 in 5.6 mi East 5.8 mph - N/A   Mostly Cloudy
8:55 PM 32.0 °F 27.5 °F 30.2 °F 93% 29.62 in 5.6 mi ESE 4.6 mph - N/A   Mostly Cloudy
9:11 PM 32.0 °F 26.4 °F 30.2 °F 93% 29.62 in 6.2 mi East 5.8 mph - N/A   Overcast
9:25 PM 32.0 °F 26.4 °F 32.0 °F 100% 29.65 in 6.2 mi East 5.8 mph - N/A   Overcast
9:41 PM 32.0 °F 25.6 °F 30.2 °F 93% 29.65 in 6.2 mi ENE 6.9 mph - N/A   Overcast
9:55 PM 32.0 °F 27.5 °F 30.2 °F 93% 29.62 in 6.2 mi NE 4.6 mph - N/A   Mostly Cloudy
10:00 PM 33 °F - 31 °F 87% 29.72 in 12 mi NE 4.5 mph - -   Overcast
10:25 PM 32.0 °F 26.4 °F 30.2 °F 93% 29.68 in 6.2 mi NE 5.8 mph - N/A   Overcast
10:55 PM 32.0 °F 27.5 °F 30.2 °F 93% 29.71 in 6.2 mi NNE 4.6 mph - N/A   Mostly Cloudy
11:25 PM 32.0 °F 24.8 °F 30.2 °F 93% 29.74 in 6.2 mi NE 8.1 mph - N/A   Mostly Cloudy
11:55 PM 32.0 °F 27.5 °F 30.2 °F 93% 29.77 in 6.2 mi NE 4.6 mph - N/A   Mostly Cloudy